Montevideo, MN

11:39 PM CDT on July 20, 2017 (GMT -0500)
Montevideo-Chippewa County

Weather History for KMVE - January, 2014

Change the Weather History Date:

Monday, January 20, 2014

  Actual Average Record
Temperature  
Mean Temperature 8 °F -  
Max Temperature 30 °F 25 °F 45 °F (1964)
Min Temperature -14 °F 4 °F -25 °F (1962)
Degree Days  
Heating Degree Days 57    
Moisture  
Dew Point 8 °F    
Average Humidity 86    
Maximum Humidity 93    
Minimum Humidity 77    
Precipitation  
Precipitation 0.00 in - - ()
Sea Level Pressure  
Sea Level Pressure 30.11 in    
Wind  
Wind Speed 12 mph (North)    
Max Wind Speed 26 mph    
Max Gust Speed 32 mph    
Visibility 7 miles    
Events Snow    
Averages and records for this station are not official NWS values.
T = Trace of Precipitation, MM = Missing Value Source: NWS Daily Summary

Daily Weather History Graph

Daily Weather History Graph

Search for Another Location

Airport or City:

Trip Planner

Search our weather history database for the weather conditions in past years. The results will help you decide how hot, cold, wet, or windy it might be!

Date:

Astronomy

Jan. 20, 2014 Rise Set
Actual Time 7:54 AM CST 5:14 PM CST
Civil Twilight 7:21 AM CST 5:46 PM CST
Nautical Twilight 6:45 AM CST 6:22 PM CST
Astronomical Twilight 6:10 AM CST 6:57 PM CST
Moon 10:04 PM CST (1/20) 9:41 AM CST (1/20)
Length of Visible Light 10h 24m
Length of Day
9h 20m
Waning Gibbous, 82% of the Moon is Illuminated
Jan 20
Waning Gibbous
Jan 23
Last Quarter
Jan 30
New
Feb 6
First Quarter
Feb 14
Full

Hourly Weather History & Observations

Time (CST) Temp. Windchill Dew Point Humidity Pressure Visibility Wind Dir Wind Speed Gust Speed Precip Events Conditions
12:01 AM 30.2 °F 23.4 °F 26.6 °F 86% 29.77 in 10.0 mi NW 6.9 mph - N/A   Overcast
12:21 AM 30.2 °F 23.4 °F 26.6 °F 86% 29.77 in 10.0 mi NW 6.9 mph - N/A   Overcast
12:41 AM 30.2 °F 23.4 °F 26.6 °F 86% 29.78 in 10.0 mi NW 6.9 mph - N/A   Overcast
1:01 AM 30.2 °F 23.4 °F 26.6 °F 86% 29.78 in 10.0 mi WNW 6.9 mph - N/A   Overcast
1:21 AM 30.2 °F 23.4 °F 26.6 °F 86% 29.78 in 10.0 mi WNW 6.9 mph - N/A   Overcast
1:41 AM - - - N/A% 29.78 in 10.0 mi WNW 6.9 mph - N/A   Overcast
2:01 AM 30.2 °F 23.4 °F 26.6 °F 86% 29.79 in 10.0 mi WNW 6.9 mph - N/A   Overcast
2:21 AM 28.4 °F 21.2 °F 26.6 °F 93% 29.79 in 10.0 mi NW 6.9 mph - N/A   Scattered Clouds
2:41 AM 28.4 °F 22.2 °F 26.6 °F 93% 29.80 in 10.0 mi NW 5.8 mph - N/A   Clear
3:01 AM 28.4 °F 21.2 °F 26.6 °F 93% 29.81 in 10.0 mi NNW 6.9 mph - N/A   Clear
3:21 AM 28.4 °F 20.4 °F 26.6 °F 93% 29.82 in 10.0 mi NNW 8.1 mph - N/A   Clear
3:41 AM 28.4 °F 19.7 °F 24.8 °F 86% 29.83 in 10.0 mi North 9.2 mph - N/A   Clear
4:01 AM 26.6 °F 16.8 °F 24.8 °F 93% 29.83 in 10.0 mi North 10.4 mph - N/A   Scattered Clouds
4:21 AM 26.6 °F 15.7 °F 24.8 °F 93% 29.84 in 10.0 mi North 12.7 mph 17.3 mph N/A   Overcast
4:41 AM 26.6 °F 15.2 °F 24.8 °F 93% 29.85 in 10.0 mi North 13.8 mph - N/A   Overcast
5:01 AM 24.8 °F 16.1 °F 23.0 °F 93% 29.84 in 10.0 mi North 8.1 mph - N/A   Overcast
5:21 AM 24.8 °F 16.9 °F 21.2 °F 86% 29.84 in 10.0 mi North 6.9 mph - N/A   Mostly Cloudy
5:41 AM 23.0 °F 12.4 °F 21.2 °F 93% 29.84 in 10.0 mi NNE 10.4 mph - N/A   Mostly Cloudy
6:01 AM 23.0 °F 10.1 °F 21.2 °F 93% 29.85 in 10.0 mi North 15.0 mph - N/A   Overcast
6:21 AM 23.0 °F 12.4 °F 21.2 °F 93% 29.86 in 10.0 mi North 10.4 mph - N/A   Overcast
6:41 AM 21.2 °F 8.3 °F 19.4 °F 93% 29.87 in 10.0 mi North 13.8 mph - N/A   Overcast
7:01 AM 21.2 °F 9.5 °F 19.4 °F 93% 29.87 in 10.0 mi North 11.5 mph - N/A   Overcast
7:21 AM 21.2 °F 11.7 °F 19.4 °F 93% 29.88 in 10.0 mi North 8.1 mph - N/A   Overcast
7:41 AM 21.2 °F 11.7 °F 19.4 °F 93% 29.89 in 10.0 mi North 8.1 mph - N/A   Overcast
8:01 AM 21.2 °F 11.7 °F 19.4 °F 93% 29.91 in 10.0 mi North 8.1 mph - N/A   Overcast
8:21 AM 21.2 °F 12.6 °F 19.4 °F 93% 29.92 in 10.0 mi North 6.9 mph - N/A   Overcast
8:41 AM 19.4 °F 8.6 °F 17.6 °F 93% 29.93 in 10.0 mi North 9.2 mph - N/A   Overcast
9:21 AM 19.4 °F 7.2 °F 17.6 °F 93% 29.96 in 10.0 mi North 11.5 mph - N/A   Overcast
9:41 AM 19.4 °F 7.2 °F 17.6 °F 93% 29.97 in 7.0 mi North 11.5 mph - N/A   Overcast
10:01 AM 19.4 °F 6.6 °F 17.6 °F 93% 29.99 in 5.0 mi North 12.7 mph - N/A   Overcast
10:21 AM 19.4 °F 5.0 °F 17.6 °F 93% 30.00 in 1.5 mi North 16.1 mph - N/A   Overcast
10:41 AM - - - N/A% 30.02 in 1.2 mi NE 13.8 mph - N/A   Overcast
11:01 AM 17.6 °F 1.7 °F 15.8 °F 93% 30.02 in 1.5 mi NE 18.4 mph - N/A   Overcast
11:21 AM 17.6 °F 3.7 °F 14.0 °F 86% 30.04 in 1.8 mi NE 13.8 mph 21.9 mph N/A   Overcast
11:41 AM 17.6 °F 1.7 °F 14.0 °F 86% 30.04 in 1.8 mi NE 18.4 mph 21.9 mph N/A   Overcast
12:01 PM 17.6 °F 1.3 °F 14.0 °F 86% 30.06 in 1.2 mi NE 19.6 mph - N/A   Overcast
12:41 PM 15.8 °F -1.5 °F 10.4 °F 79% 30.09 in 2.5 mi NE 20.7 mph 27.6 mph N/A   Overcast
1:01 PM 14.0 °F -3.4 °F 8.6 °F 79% 30.09 in 2.0 mi NE 19.6 mph 26.5 mph N/A   Overcast
1:21 PM 12.2 °F -4.8 °F 8.6 °F 85% 30.12 in 1.8 mi NE 17.3 mph - N/A   Overcast
1:41 PM 12.2 °F -5.8 °F 6.8 °F 79% 30.14 in 4.0 mi NE 19.6 mph 24.2 mph N/A   Overcast
2:01 PM 12.2 °F -6.3 °F 6.8 °F 79% 30.15 in 4.0 mi NE 20.7 mph 27.6 mph N/A   Overcast
2:35 PM 10.4 °F -9.5 °F 5.0 °F 79% 30.19 in 3.0 mi NNE 23.0 mph 27.6 mph N/A Snow Light Snow
2:54 PM 8.6 °F -12.3 °F 3.2 °F 79% 30.21 in 1.5 mi NNE 24.2 mph 28.8 mph N/A Snow Light Snow
3:14 PM 8.6 °F -13.1 °F 3.2 °F 79% 30.24 in 1.0 mi NNE 26.5 mph 31.1 mph N/A Snow Light Snow
3:34 PM 6.8 °F -15.5 °F 3.2 °F 85% 30.26 in 0.8 mi NNE 26.5 mph 29.9 mph N/A Snow Light Snow
3:54 PM 6.8 °F -15.5 °F 1.4 °F 79% 30.28 in 1.2 mi NNE 26.5 mph 32.2 mph N/A Snow Light Snow
4:04 PM 6.8 °F -13.8 °F 1.4 °F 79% 30.30 in 2.0 mi NNE 21.9 mph 32.2 mph N/A Snow Light Snow
4:21 PM 5.0 °F -15.7 °F 1.4 °F 85% 30.32 in 1.0 mi North 20.7 mph 28.8 mph N/A   Overcast
4:58 PM 3.2 °F -17.6 °F -0.4 °F 85% 30.34 in 4.0 mi North 19.6 mph 29.9 mph N/A   Overcast
5:18 PM 1.4 °F -21.0 °F -2.2 °F 85% 30.36 in 2.5 mi North 21.9 mph 28.8 mph N/A   Overcast
5:38 PM -0.4 °F -21.2 °F -4.0 °F 85% 30.38 in 5.0 mi North 17.3 mph 27.6 mph N/A   Overcast
5:44 PM -0.4 °F -20.5 °F -5.8 °F 78% 30.38 in 5.0 mi North 16.1 mph 26.5 mph N/A   Overcast
6:01 PM -2.2 °F -22.9 °F -5.8 °F 85% 30.40 in 7.0 mi North 16.1 mph 28.8 mph N/A   Overcast
6:35 PM -5.8 °F -29.4 °F -9.4 °F 84% 30.43 in 4.0 mi North 19.6 mph 28.8 mph N/A   Scattered Clouds
6:41 PM -5.8 °F -29.9 °F -9.4 °F 84% 30.43 in 7.0 mi North 20.7 mph 27.6 mph N/A   Scattered Clouds
7:01 PM -5.8 °F -28.2 °F -9.4 °F 84% 30.46 in 7.0 mi North 17.3 mph 27.6 mph N/A   Scattered Clouds
7:21 PM -7.6 °F -33.4 °F -11.2 °F 84% 30.47 in 5.0 mi North 23.0 mph 26.5 mph N/A   Overcast
7:41 PM -7.6 °F -29.8 °F -11.2 °F 84% 30.49 in 7.0 mi North 16.1 mph 25.3 mph N/A   Mostly Cloudy
8:01 PM -9.4 °F -34.1 °F -13.0 °F 84% 30.49 in 10.0 mi North 19.6 mph 25.3 mph N/A   Scattered Clouds
8:21 PM -9.4 °F -32.8 °F -14.8 °F 77% 30.50 in 10.0 mi North 17.3 mph 23.0 mph N/A   Clear
9:01 PM -11.2 °F -35.8 °F -16.6 °F 77% 30.52 in 10.0 mi North 18.4 mph 21.9 mph N/A   Clear
9:21 PM -11.2 °F -32.9 °F -16.6 °F 77% 30.52 in 10.0 mi North 13.8 mph 26.5 mph N/A   Clear
9:41 PM -11.2 °F -34.4 °F -16.6 °F 77% 30.52 in 10.0 mi North 16.1 mph 19.6 mph N/A   Clear
10:01 PM -11.2 °F -32.1 °F -16.6 °F 77% 30.53 in 10.0 mi NNW 12.7 mph - N/A   Clear
10:21 PM -13.0 °F -33.4 °F -18.4 °F 77% 30.53 in 10.0 mi North 11.5 mph - N/A   Clear
10:41 PM -13.0 °F -33.4 °F -18.4 °F 77% 30.53 in 10.0 mi North 11.5 mph - N/A   Clear
11:01 PM -14.8 °F -37.5 °F -18.4 °F 84% 30.53 in 10.0 mi North 13.8 mph - N/A   Clear
11:21 PM -14.8 °F -36.6 °F -18.4 °F 84% 30.54 in 10.0 mi NNW 12.7 mph - N/A   Clear
11:41 PM -14.8 °F -35.6 °F -18.4 °F 84% 30.54 in 10.0 mi NNW 11.5 mph 18.4 mph N/A   Clear